Regional Weather Roundup
Issued by NWS

Home | Current Version | Previous Version | Text Only | Print | Product List | Glossary Off
Versions: 1 2 3 4 5 6 7 8 9 10 11 12 13 14 15 16 17 18 19 20 21 22 23 24 25 26 27 28 29 30 31 32 33 34 35 36 37 38 39 40 41 42 43 44 45 46 47 48 49 50

000
ASUS43 KIND 241309
RWRIN

WEATHER ROUNDUP FOR INDIANA
NATIONAL WEATHER SERVICE INDIANAPOLIS IN
900 AM EDT SAT SEP 24 2016

NOTE: "FAIR" INDICATES FEW OR NO CLOUDS BELOW 12,000 FEET WITH NO
SIGNIFICANT WEATHER AND/OR OBSTRUCTIONS TO VISIBILITY.

* - STATION DOES NOT REPORT WEATHER SUCH AS PRECIPITATION OR FOG.

+ - STATION NOT QUALITY CONTROLLED BY THE NATIONAL WEATHER SERVICE.
    USE DATA WITH CAUTION...ESPECIALLY DEWPOINT AND RELATIVE
    HUMIDITY OBSERVATIONS.

INZ001>003-010>013-019-020-241400-
NORTHWEST INDIANA

CITY           SKY/WX    TMP DP  RH WIND       PRES   REMARKS
GARY /AIRPORT/ CLOUDY    68  64  88 E3        30.19R
KNOX *+        CLOUDY    63  46  55 E6        30.18S
LA PORTE +     CLOUDY    64  64 100 E8        30.20S
MICHIGAN CITY+ CLOUDY    61  61 100 MISG      30.20S
MONTICELLO +   CLOUDY    67  61  80 CALM      30.16R HAZE
RENSSELAER +   CLOUDY    68  64  88 E7        30.18R
VALPARAISO     CLOUDY    64  59  83 E9        30.19R

$$

LMZ046-743>745-241400-
SOUTHERN LAKE MICHIGAN

STATION/POSITION TIME  TEMP    WIND        PRES    WAVE
                       AIR SEA DIR/SP/G            HT
                 (UTC) (F)     (DEG/KT/KT) (MB)    (FT)
BURNS HARBOR     1205   64      80/  8/ 10 1022.4R
MICHIGAN CITY    1200   62      40/  7/  8   N/A
5NW MICH CITY    1200   63 70   80/ 10/ 14   N/A     3

$$

INZ004-005-014>016-021>024-241400-
NORTH CENTRAL INDIANA

CITY           SKY/WX    TMP DP  RH WIND       PRES   REMARKS
ELKHART        CLOUDY   N/A N/A N/A NE7       30.21S
GOSHEN         CLOUDY    63  56  78 E7        30.21R
LOGANSPORT +   CLOUDY    64  63  94 E7        30.19R
PERU/GRISSOM   CLOUDY    66  64  93 E12       30.17R
ROCHESTER +    MOSUNNY   68  63  83 E9        30.20R
SOUTH BEND     CLOUDY    61  57  87 E6        30.21S
WARSAW +       CLOUDY    63  54  72 E8        30.21R

$$

INZ006>009-017-018-025>027-241400-
NORTHEAST INDIANA

CITY           SKY/WX    TMP DP  RH WIND       PRES   REMARKS
ANGOLA *+      CLOUDY    61  52  72 E7        30.22R
AUBURN +       CLOUDY    63  55  77 E9        30.22S
FORT WAYNE     CLOUDY    63  58  83 NE12      30.21R
HUNTINGTON +   CLOUDY    63  61  93 NE6       30.20R
KENDALLVILLE + CLOUDY    62  57  84 E8        30.23R

$$

INZ028-029-035-036-043>045-051>053-241400-
WEST CENTRAL INDIANA

CITY           SKY/WX    TMP DP  RH WIND       PRES   REMARKS
CRAWFORDSVL +  SUNNY     64  64 100 E5        30.16R FOG
GREENCASTLE +  SUNNY     66  66 100 CALM      30.16R FOG
LAFAYETTE      CLOUDY    67  66  97 NE10      30.15R FOG
TERRE HAUTE    SUNNY     68  66  93 NE3       30.14R FOG

$$

INZ030>032-037>040-046>048-054>057-064-065-241400-
CENTRAL INDIANA

CITY           SKY/WX    TMP DP  RH WIND       PRES   REMARKS
ANDERSON       CLOUDY    66  66 100 E8        30.19R FOG
COLUMBUS       CLOUDY    66  66 100 CALM      30.16S FOG
GREENWOOD *+   CLOUDY    68  68 100 E7        30.17R
INDIANAPOLIS   CLOUDY    68  66  93 E8        30.15R FOG
-EAGLE CREEK   CLOUDY    68  65  90 NE5       30.15R FOG
MARION +       CLOUDY    65  62  91 E8        30.19R FOG
MT COMFORT *+  CLOUDY    66  64  94 E6        30.17S
SHELBYVILLE    CLOUDY    70  66  87 NE6       30.16R FOG
ZIONSVILLE +   FOG       63  63  99 E3        30.18R VSB 1/2

$$

INZ033-034-041-042-049-050-058-059-241400-
EAST CENTRAL INDIANA

CITY           SKY/WX    TMP DP  RH WIND       PRES   REMARKS
MUNCIE         CLOUDY    67  64  90 E8        30.18R FOG

$$

INZ060-061-067>069-081>083-085>088-241400-
SOUTHWEST INDIANA

CITY           SKY/WX    TMP DP  RH WIND       PRES   REMARKS
EVANSVILLE     SUNNY     70  66  87 CALM      30.14R FOG
HUNTINGBURG *+   N/A     66  63  88 CALM      30.13S
WASHINGTON +   FOG      N/A N/A N/A MISG      30.13R VSB 1

$$

INZ062-063-066-070>080-084-089>092-241400-
SOUTH CENTRAL AND SOUTHEAST INDIANA

CITY           SKY/WX    TMP DP  RH WIND       PRES   REMARKS
BLOOMINGTON    SUNNY     69  65  86 CALM      30.15R FOG
MADISON *+     SUNNY     68  66  94 E5        30.16S
NORTH VERNON + SUNNY    N/A N/A N/A CALM      30.15R HAZE
SEYMOUR +      MOSUNNY   68  68 100 CALM      30.14  FOG

$$





USA.gov is the U.S. government's official web portal to all federal, state and local government web resources and services.